Location: Rounton
(54.4000°N, 1.3500°W)
Time: 07:06:29
(UTC+00:00)

Tiros 1 despin weight - Pass Details

Date: 05 December 2021
Orbit: 592 x 641 km, 48.2° (Epoch: 19 January)

Event Time Altitude Azimuth Distance (km) Brightness Sun altitude
Rises 15:36:42 0° 258° (WSW) 2,829 ? -0.2°
Reaches altitude 10° 15:39:06 10° 250° (WSW) 1,924 ? -0.4°
Maximum altitude 15:43:09 37° 183° (S) 930 ? -0.9°
Drops below altitude 10° 15:47:13 10° 116° (ESE) 1,923 ? -1.3°
Sets 15:49:37 0° 108° (ESE) 2,827 ? -1.6°
